Location: Redwood City
(37.4850°N, 122.2350°W)
Time: 07:02:58
(UTC-08:00)

ISS - Visible Passes

Search period start: 20 December 2014 00:00
Search period end: 30 December 2014 00:00
Orbit: 404 x 415 km, 51.6° (Epoch: 20 December)

Date Brightness Start Highest point End Pass type
(mag) Time Alt. Az. Time Alt. Az. Time Alt. Az.
21 Dec -0.9 18:02:39 10° N 18:03:30 11° NNE 18:03:30 11° NNE visible
22 Dec -0.8 18:47:04 10° NNW 18:47:46 14° NNW 18:47:46 14° NNW visible
23 Dec -1.6 17:56:32 10° NNW 17:58:53 18° NNE 17:59:22 17° NE visible
24 Dec -2.5 18:41:32 10° NW 18:43:55 43° NNW 18:43:55 43° NNW visible
25 Dec -2.6 17:50:42 10° NW 17:53:45 35° NE 17:55:56 16° E visible
25 Dec -0.2 19:27:39 10° W 19:28:45 16° W 19:28:45 16° W visible
26 Dec -2.1 18:36:09 10° WNW 18:39:16 40° SW 18:41:09 20° SSE visible
27 Dec -3.3 17:44:58 10° NW 17:48:15 86° SW 17:51:31 10° SE visible
28 Dec -0.1 18:31:26 10° W 18:33:21 15° SW 18:35:16 10° SSW visible
29 Dec -1.0 17:39:28 10° WNW 17:42:21 29° SW 17:45:13 10° SSE visible
